Location: Newark
(45.8667°N, 9.7333°E)
Time: 18:40:45
(UTC+00:00)

Transit 4A - Pass Details

Date: 29 January 2020
Orbit: 872 x 973 km, 66.8° (Epoch: 26 February)

Event Time Altitude Azimuth Distance (km) Brightness Sun altitude
Rises 04:54:09 0° 204° (SSW) 3,544 10.8 -19.7°
Reaches altitude 10° 04:56:41 10° 202° (SSW) 2,591 10.1 -19.3°
Maximum altitude 05:02:40 73° 119° (ESE) 938 8.0 -18.2°
Drops below altitude 10° 05:08:32 10° 36° (NE) 2,548 10.5 -17.2°
Sets 05:11:00 0° 35° (NE) 3,482 11.3 -16.8°
